This demonstration page uses our WeatherBlox Daily Observations layout. Learn more.

Left ArrowRight Arrow

44.8408, -93.29828

Hourly Observations for September 30, 2018

Temp ( °F °C ) Dew Point ( °F °C ) Humidity (%) Winds ( mph kmh ) Pressure ( in mb ) Visibility ( mi km ) Precip ( " mm )
12:09 am 00:09 Cloudy 46 7.8 37 2.8 71 71 SE 9 15 30.21 1023 10 16 0.00 0.00
12:25 am 00:25 Cloudy 46 7.8 37 2.8 71 71 SE 9 15 30.21 1023 10 16 0.00 0.00
12:53 am 00:53 Cloudy 46 7.8 37 2.8 71 71 SE 6 9 30.24 1024 10 16 0.00 0.00
1:25 am 01:25 Cloudy 46 7.8 38 3.3 73 73 ESE 5 7 30.24 1024 10 16 0.00 0.00
1:53 am 01:53 Cloudy 46 7.8 38 3.3 73 73 E 7 11 30.24 1024 10 16 0.00 0.00
2:06 am 02:06 Cloudy 46 7.8 38 3.3 73 73 E 7 11 30.24 1024 10 16 0.00 0.00
2:27 am 02:27 Cloudy 46 7.8 39 3.9 77 77 ESE 6 9 30.21 1023 10 16 0.00 0.00
2:53 am 02:53 Cloudy 46 7.8 39 3.9 77 77 ESE 6 9 30.24 1024 10 16 0.00 0.00
3:53 am 03:53 Cloudy 46 7.8 39 3.9 77 77 ESE 6 9 30.24 1024 10 16 0.00 0.00
4:53 am 04:53 Cloudy 46 7.8 40 4.4 79 79 Calm 30.24 1024 10 16 0.00 0.00
5:53 am 05:53 Cloudy 46 7.8 40 4.4 79 79 Calm 30.25 1024 10 16 0.00 0.00
6:53 am 06:53 Cloudy 46 7.8 41 5 83 83 Calm 30.26 1025 10 16 0.00 0.00
7:53 am 07:53 Cloudy 46 7.8 41 5 83 83 SSE 3 6 30.27 1025 10 16 0.00 0.00
8:53 am 08:53 Cloudy 47 8.3 41 5 80 80 VRB 3 6 30.27 1025 10 16 0.00 0.00
9:53 am 09:53 Cloudy 49 9.4 42 5.6 77 77 Calm 30.28 1025 10 16 0.00 0.00
10:05 am 10:05 Mostly Cloudy 49 9.4 42 5.6 77 77 N 5 7 30.27 1025 10 16 0.00 0.00
10:19 am 10:19 Cloudy 50 10 42 5.6 74 74 NNW 6 9 30.27 1025 10 16 0.00 0.00
10:34 am 10:34 Cloudy 50 10 42 5.6 74 74 NW 6 9 30.27 1025 10 16 0.00 0.00
10:53 am 10:53 Cloudy 50 10 41 5 71 71 VRB 6 9 30.29 1026 10 16 0.00 0.00
11:53 am 11:53 Cloudy 50 10 42 5.6 74 74 N 8 13 30.26 1025 10 16 0.00 0.00
12:53 pm 12:53 Cloudy 50 10 42 5.6 74 74 NNW 8 13 30.29 1026 10 16 0.00 0.00
1:53 pm 13:53 Cloudy 52 11.1 43 6.1 72 72 VRB 3 6 30.27 1025 10 16 0.00 0.00
2:34 pm 14:34 Mostly Cloudy 53 11.7 43 6.1 69 69 NE 6 9 30.24 1024 10 16 0.00 0.00
2:53 pm 14:53 Mostly Cloudy 52 11.1 42 5.6 69 69 Calm 30.28 1025 10 16 0.00 0.00
3:53 pm 15:53 Cloudy 54 12.2 42 5.6 64 64 VRB 6 9 30.27 1025 10 16 0.00 0.00
4:53 pm 16:53 Mostly Cloudy 54 12.2 41 5 62 62 NNE 8 13 30.26 1025 10 16 0.00 0.00
5:53 pm 17:53 Mostly Cloudy 52 11.1 41 5 66 66 N 12 19 30.27 1025 10 16 0.00 0.00
6:53 pm 18:53 Mostly Cloudy 50 10 42 5.6 74 74 N 9 15 30.27 1025 10 16 0.00 0.00
7:53 pm 19:53 Cloudy 50 10 42 5.6 74 74 NNE 5 7 30.29 1026 10 16 0.00 0.00
8:53 pm 20:53 Cloudy 50 10 42 5.6 74 74 NNE 6 9 30.30 1026 10 16 0.00 0.00
9:53 pm 21:53 Cloudy 50 10 42 5.6 74 74 NE 3 6 30.30 1026 10 16 0.00 0.00
10:53 pm 22:53 Cloudy 50 10 42 5.6 74 74 E 5 7 30.29 1026 10 16 0.00 0.00
11:53 pm 23:53 Cloudy 50 10 42 5.6 74 74 E 3 6 30.29 1026 10 16 0.00 0.00

Powered by AerisWeather